User: anonymous   Login
Location: Unspecified
(0.0000°N, 0.0000°E)
Time: 19:07:51
(UTC+01:00)
Language:

Meteor PRIRODA - Orbit

View from above orbital plane
View from above orbital plane
View from above satellite
View from above satellite

Ground track
Ground track

The orbit data is extracted from the following two-line orbital elements,

1 12585U 81065A   16343.40801092  .00001248  00000-0  61050-4 0  9993
2 12585  97.4090 319.7883 0014726 353.7121   6.3927 15.19962872933285
Epoch (UTC): 08 December 2016 09:47:32
Eccentricity: 0.0014726
inclination: 97.4090°
perigee height: 496 km
apogee height: 516 km
right ascension of ascending node: 319.7883°
argument of perigee: 353.7121°
revolutions per day: 15.19962872
mean anomaly at epoch: 6.3927°
orbit number at epoch: 93328

The dashed part of the orbit path shows where the satellite is in the earth's shadow,  

DLR